User: anonymous   Login
Location: Theydon Bois
(51.6750°N, 0.1050°E)
Time: 00:01:32
(UTC+01:00)
Language:

Cosmos 1295 Rocket - Orbit

View from above orbital plane
View from above orbital plane
View from above satellite
View from above satellite

Ground track
Ground track

The orbit data is extracted from the following two-line orbital elements,

1 12682U 81077B   17295.52850383 -.00000056 +00000-0 -69509-4 0  9996
2 12682 082.9133 280.8818 0033737 349.3060 010.7376 13.78535696820142
Epoch (UTC): 22 October 2017 12:41:02
Eccentricity: 0.0033737
inclination: 82.9133°
perigee height: 944 km
apogee height: 994 km
right ascension of ascending node: 280.8818°
argument of perigee: 349.3060°
revolutions per day: 13.78535696
mean anomaly at epoch: 10.7376°
orbit number at epoch: 82014

The dashed part of the orbit path shows where the satellite is in the earth's shadow,  

DLR